weather.gov     
National Weather Service

Terminal Aerodrome Forecast
NWS Homepage
This page is being discontinued on March 12, 2014.
The same data is available at this site. Please update your bookmarks.
Thank you, and we apologize for the inconvenience.
Please send an email to SR-SRH.Webmaster@noaa.gov with any concerns.


Current Version
Previous Version:    01  02  03  04  05  06  07  08  09  10  11  12  13  14  15  16  17  18  19  20  21  22  23  24  25  26  27  
[Printable]
351
FTUS45 KBOI 180520
TAFTWF
TAF
KTWF 180520Z 1806/1906 16007KT P6SM VCSH SCT090 OVC150
      TEMPO 1809/1812 -SHRA BKN080
     FM181800 30013KT P6SM FEW090 BKN200
     FM190200 20006KT P6SM SCT100 BKN200=




351
FTUS45 KBOI 180520
TAFTWF
TAF
KTWF 180520Z 1806/1906 16007KT P6SM VCSH SCT090 OVC150
      TEMPO 1809/1812 -SHRA BKN080
     FM181800 30013KT P6SM FEW090 BKN200
     FM190200 20006KT P6SM SCT100 BKN200=


U.S. Dept. of Commerce
NOAA National Weather Service
1325 East West Highway
Silver Spring, MD 20910
E-mail: w-nws.webmaster@noaa.gov
Page last modified: May 16, 2007
NATIONAL WEATHER SERVICE: for Safety, for Work, for Fun - FOR LIFE